Regional Weather Roundup
Issued by NWS

Home | Current Version | Previous Version | Graphics & Text | Print | Product List | Glossary On
Versions: 1 2 3 4 5 6 7 8 9 10 11 12 13 14 15 16 17 18 19 20 21 22 23 24 25 26 27 28 29 30 31 32 33 34 35 36 37 38 39 40 41 42 43 44 45 46 47 48 49 50
000
ASUS45 KBOU 201407
RWRCO

WEATHER ROUNDUP FOR COLORADO
NATIONAL WEATHER SERVICE DENVER/BOULDER CO
800 AM MDT WED AUG 20 2014

NOTE: "FAIR" INDICATES FEW OR NO CLOUDS BELOW 12000 FEET WITH NO
SIGNIFICANT WEATHER AND/OR OBSTRUCTIONS TO VISIBILITY.

COZ001>005-013-030-031-201500-
...NORTHWEST COLORADO...

CITY           SKY/WX    TMP DP  RH WIND       PRES   REMARKS
CRAIG          CLOUDY    59  55  87 CALM      30.08R
HAYDEN         CLOUDY    55  52  88 E6        30.10R
MEEKER         CLOUDY    60  53  77 SW6       30.10R
MOUNT WERNER   NOT AVBL
STEAMBOAT SPGS CLOUDY    54  53  98 CALM      30.12R
WALDEN         CLOUDY    54  50  87 S9        30.16R
$$

COZ006>008-011-201500-
...WEST CENTRAL VALLEYS...

CITY           SKY/WX    TMP DP  RH WIND       PRES   REMARKS
GRAND JUNCTION PTSUNNY   62  60  93 E5        30.03R
MONTROSE       MOSUNNY   62  59  90 CALM      30.11R
EAGLE          PTSUNNY   57  57 100 CALM      30.14R
RIFLE          MOSUNNY   61  58  90 CALM      30.07R
DELTA          RAIN      65  58  79 CALM      30.08R
NUCLA          MOSUNNY   63  52  67 S7        30.14S
$$

COZ017>023-064>068-201500-
...SOUTHWEST COLORADO...

CITY           SKY/WX    TMP DP  RH WIND       PRES   REMARKS
DURANGO        MOSUNNY   61  52  72 CALM      30.16R
CORTEZ         MOSUNNY   59  56  89 NE6       30.14R
PAGOSA SPRINGS MOSUNNY   56  53  90 CALM      30.22R
TELLURIDE      CLOUDY    52  52 100 CALM      30.29R FOG
WOLF CREEK PAS NOT AVBL
$$

COZ009-010-012-014-032>034-037-058>063-201500-
...CENTRAL COLORADO...

CITY           SKY/WX    TMP DP  RH WIND       PRES   REMARKS
ASPEN          CLOUDY    54  52  93 CALM      30.18R
BUENA VISTA    MOSUNNY   58  49  69 SE3       30.17S
COPPER MTN     HAZE      46  41  81 W3        30.42R VSB 1/4
BERTHOUD PASS  FOG       37  36  93 NW15      30.43S VSB<1/4
COTTONWOOD PAS PTSUNNY   55  45  67 W12G21    30.28S
GUNNISON       CLOUDY    57  48  72 CALM      30.21R
KREMMLING      PTSUNNY   54  50  87 CALM      30.17R
LEADVILLE      LGT RAIN  51  44  77 N3        30.28R
MONARCH PASS   LGT RAIN  43  41  93 W25G33    30.52R VSB<1/4
SALIDA         MOSUNNY   64  48  57 SW16      30.21R
SUNLIGHT       CLOUDY    48  46  93 CALM      30.37R FOG
WILKERSON PASS NOT AVBL
$$

COZ069>075-201500-
...SAN LUIS VALLEY/SANGRE DE CRISTO MOUNTAINS...

CITY           SKY/WX    TMP DP  RH WIND       PRES   REMARKS
ALAMOSA        CLOUDY    60  48  64 S7        30.16R
LA VETA PASS   NOT AVBL
SAGUACHE       MOSUNNY   61  45  55 NW12      30.19R
$$

COZ035-036-038>040-201500-
...NORTHERN COLORADO FRONT RANGE...

CITY           SKY/WX    TMP DP  RH WIND       PRES   REMARKS
DENVER INTL AP MOSUNNY   65  54  67 S6        29.95R
DMNS CITY PARK   N/A     69  53  57 NW2       29.94F
AURORA         MOSUNNY   63  54  71 VRB1      29.99R
FRONT RANGE AP NOT AVBL
ERIE MUNI ARPT MOSUNNY   69  53  55 CALM      29.93S
BOULDER MUN AP MOSUNNY   70  50  49 CALM      29.93S
CENTENNIAL     MOSUNNY   64  49  57 W3        29.99R
BROOMFIELD     MOSUNNY   66  50  55 VRB3      29.98R
FORT COLLINS   MOSUNNY   66  55  68 SE3       29.93R
LONGMONT       MOSUNNY   70  55  59 CALM      29.94S
$$

COZ041-046-047-076>085-087-088-201500-
...PIKES PEAK/PALMER DIVIDE AND SOUTHERN FOOTHILLS...

CITY           SKY/WX    TMP DP  RH WIND       PRES   REMARKS
COLO. SPRINGS  PTSUNNY   66  52  60 NE5       30.01R
A. F. ACADEMY  MOSUNNY   64  48  56 E1        30.03R
ELLICOTT       PTSUNNY   68  51  54 S3        29.99R
FALCON         PTSUNNY   70  47  43 W5        30.06S
FORT CARSON    CLOUDY    64  52  64 NW6       29.99R
LIMON          CLOUDY    67  51  56 CALM      29.95R
MONUMENT HILL  PTSUNNY   66  45  45 W7        30.05S
TRINIDAD       PTSUNNY   70  47  43 W14       29.99R
$$

COZ042>045-048>051-090-091-201500-
...NORTHEAST COLORADO...

CITY           SKY/WX    TMP DP  RH WIND       PRES   REMARKS
GREELEY ARPT   MOSUNNY   66  52  59 SW3       29.92R
AKRON          CLOUDY    66  58  75 W6        29.90R
BURLINGTON     PTSUNNY   77  58  51 SW10      29.85R
WRAY             N/A     67  64  87 NW5       29.83R
STERLING       CLOUDY    70  64  83 W3        29.85S
HOLYOKE        NOT AVBL
FORT MORGAN    CLOUDY    66  58  74 CALM      29.91R
$$

COZ086-089-092>099-201500-
...SOUTHEAST COLORADO...

CITY           SKY/WX    TMP DP  RH WIND       PRES   REMARKS
PUEBLO         PTSUNNY   66  55  67 CALM      29.91R
LA JUNTA       MOSUNNY   76  51  41 SW13      29.87R
LAMAR          MOSUNNY   74  59  59 CALM      29.83R
SPRINGFIELD      N/A     74  57  55 SW9       29.90R
$$



USA.gov is the U.S. government's official web portal to all federal, state and local government web resources and services.